Weather History for Cincinnati, OH

Change the Weather History Date:

Saturday, August 10, 2013

  Actual Average Record
Temperature  
Mean Temperature 76 °F -  
Max Temperature 84 °F 84 °F 97 °F (1980)
Min Temperature 68 °F 65 °F 51 °F (1972)
Cooling Degree Days 11    
Growing Degree Days 26 (Base 50)    
Moisture  
Dew Point 69 °F    
Average Humidity 87    
Maximum Humidity 100    
Minimum Humidity 53    
Precipitation  
Precipitation 0.00 in - - ()
Sea Level Pressure  
Sea Level Pressure 30.07 in    
Wind  
Wind Speed 1 mph (South)    
Max Wind Speed 7 mph    
Max Gust Speed -    
Visibility 6 miles    
Events Rain    
Averages and records for this station are not official NWS values.
T = Trace of Precipitation, MM = Missing Value Source: NWS Daily Summary

Daily Weather History Graph

Daily Weather History Graph

Search for Another Location

Airport:

Trip Planner

Search our weather history database for the weather conditions in past years. The results will help you decide how hot, cold, wet, or windy it might be!

Date:

Astronomy

Aug. 10, 2013 Rise Set
Actual Time 6:46 AM EDT 8:38 PM EDT
Civil Twilight 6:17 AM EDT 9:07 PM EDT
Nautical Twilight 5:42 AM EDT 9:42 PM EDT
Astronomical Twilight 5:04 AM EDT 10:20 PM EDT
Moon 10:29 AM EDT (8/10) 10:22 PM EDT (8/10)
Length of Visible Light 14h 50m
Length of Day
13h 52m
Waxing Crescent, 14% of the Moon is Illuminated
Aug 10
Waxing Crescent
Aug 14
First Quarter
Aug 20
Full
Aug 28
Last Quarter
Sep 5
New

Hourly Weather History & Observations

Time (EDT) Temp. Heat Index Dew Point Humidity Pressure Visibility Wind Dir Wind Speed Gust Speed Precip Events Conditions
12:53 AM 72.0 °F - 71.1 °F 97% 30.04 in 8.0 mi Calm Calm - N/A   Clear
1:53 AM 71.1 °F - 71.1 °F 100% 30.04 in 6.0 mi Calm Calm - N/A   Clear
2:53 AM 71.1 °F - 70.0 °F 96% 30.04 in 7.0 mi Calm Calm - N/A   Clear
3:53 AM 70.0 °F - 70.0 °F 100% 30.05 in 5.0 mi Calm Calm - N/A   Partly Cloudy
4:49 AM 69.8 °F - 69.8 °F 100% 30.06 in 1.8 mi Calm Calm - N/A   Clear
4:50 AM 70.0 °F - 69.1 °F 97% 30.05 in 1.5 mi Calm Calm - N/A   Clear
4:59 AM 69.8 °F - 69.8 °F 100% 30.06 in 3.0 mi Calm Calm - N/A   Clear
5:53 AM 68.0 °F - 68.0 °F 100% 30.06 in 3.0 mi Calm Calm - N/A   Clear
6:00 AM 68.0 °F - 68.0 °F 100% 30.07 in 1.8 mi Calm Calm - N/A   Clear
6:15 AM 68.0 °F - 68.0 °F 100% 30.07 in 3.0 mi NE 3.5 mph - N/A   Clear
6:20 AM 68.0 °F - 68.0 °F 100% 30.08 in 2.0 mi Calm Calm - N/A   Scattered Clouds
6:24 AM 68.0 °F - 68.0 °F 100% 30.07 in 1.0 mi NNE 3.5 mph - N/A   Mist
6:30 AM 68.0 °F - 68.0 °F 100% 30.07 in 0.8 mi Calm Calm - N/A   Mist
6:34 AM 68.0 °F - 68.0 °F 100% 30.07 in 1.0 mi Calm Calm - N/A   Mist
6:39 AM 68.0 °F - 68.0 °F 100% 30.07 in 1.2 mi Calm Calm - N/A   Scattered Clouds
6:43 AM 68.0 °F - 68.0 °F 100% 30.08 in 3.0 mi Calm Calm - N/A   Scattered Clouds
6:53 AM 68.0 °F - 68.0 °F 100% 30.06 in 4.0 mi Calm Calm - N/A   Clear
7:53 AM 70.0 °F - 69.1 °F 97% 30.08 in 5.0 mi Calm Calm - N/A   Partly Cloudy
8:53 AM 73.0 °F - 70.0 °F 90% 30.09 in 8.0 mi Calm Calm - N/A   Partly Cloudy
9:53 AM 75.0 °F - 71.1 °F 87% 30.09 in 10.0 mi Calm Calm - N/A   Mostly Cloudy
10:53 AM 77.0 °F - 72.0 °F 84% 30.10 in 10.0 mi Calm Calm - N/A   Mostly Cloudy
11:53 AM 78.1 °F - 70.0 °F 76% 30.12 in 10.0 mi SSW 3.5 mph - N/A   Overcast
12:37 PM 78.8 °F - 69.8 °F 74% 30.12 in 10.0 mi Calm Calm - N/A   Overcast
12:53 PM 79.0 °F - 70.0 °F 74% 30.11 in 10.0 mi SW 3.5 mph - N/A   Overcast
1:06 PM 80.6 °F 84.6 °F 71.6 °F 74% 30.12 in 10.0 mi ESE 3.5 mph - N/A   Overcast
1:53 PM 81.0 °F 83.8 °F 68.0 °F 65% 30.09 in 10.0 mi SSW 6.9 mph - N/A   Scattered Clouds
2:53 PM 82.9 °F 84.6 °F 64.9 °F 54% 30.08 in 10.0 mi Calm Calm - N/A   Clear
3:53 PM 84.0 °F 85.8 °F 64.9 °F 53% 30.07 in 10.0 mi Calm Calm - N/A   Clear
4:53 PM 82.9 °F 85.0 °F 66.0 °F 56% 30.05 in 10.0 mi South 3.5 mph - N/A   Clear
5:53 PM 82.9 °F 85.0 °F 66.0 °F 56% 30.04 in 10.0 mi Calm Calm - N/A   Scattered Clouds
6:53 PM 80.1 °F 83.2 °F 70.0 °F 71% 30.04 in 10.0 mi South 4.6 mph - N/A   Mostly Cloudy
7:53 PM 78.1 °F - 71.1 °F 79% 30.04 in 10.0 mi SE 4.6 mph - 0.00 in Rain Light Rain
8:53 PM 75.9 °F - 71.1 °F 85% 30.06 in 10.0 mi West 3.5 mph - 0.00 in   Overcast
9:53 PM 75.0 °F - 71.1 °F 87% 30.07 in 10.0 mi SSE 5.8 mph - N/A   Overcast
10:53 PM 73.0 °F - 72.0 °F 96% 30.08 in 7.0 mi Calm Calm - N/A   Overcast
11:53 PM 72.0 °F - 71.1 °F 97% 30.08 in 7.0 mi Calm Calm - N/A   Mostly Cloudy